Location: Hilton Head Island
(32.2163°N, 80.7526°W)
Time: 09:54:44
(UTC-05:00)

Transit 4A - All Passes

Search period start: 10 February 2026 00:00
Search period end: 20 February 2026 00:00
Orbit: 865 x 976 km, 66.8° (Epoch: 9 February)

Date Brightness Start Highest point End Pass type
(mag) Time Alt. Az. Time Alt. Az. Time Alt. Az.
10 Feb - 04:39:55 10° S 04:45:12 38° ESE 04:50:36 10° NE visible
10 Feb - 06:26:41 10° WSW 06:31:32 27° NW 06:36:29 10° N visible
10 Feb - 13:47:28 10° N 13:52:01 21° NE 13:56:36 10° E daylight
10 Feb - 15:32:32 10° NNW 15:38:43 61° WSW 15:44:59 10° S daylight
11 Feb - 04:48:09 10° S 04:53:49 61° ESE 04:59:38 10° NNE visible
11 Feb - 06:36:40 10° W 06:40:33 18° NW 06:44:31 10° N visible
11 Feb - 13:55:36 10° N 14:01:01 30° ENE 14:06:30 10° ESE daylight
11 Feb - 15:41:36 10° NW 15:47:22 39° WSW 15:53:12 10° S daylight
12 Feb - 04:56:43 10° SSW 05:02:31 86° WNW 05:08:28 10° NNE visible
12 Feb - 06:47:31 10° WNW 06:49:41 12° NW 06:51:53 10° NNW daylight
12 Feb - 14:03:58 10° NNW 14:09:56 44° ENE 14:15:58 10° SE daylight
12 Feb - 15:50:55 10° NW 15:55:57 25° WSW 16:01:01 10° SSW daylight
13 Feb - 03:22:03 10° SE 03:25:35 17° ESE 03:29:09 10° ENE visible
13 Feb - 05:05:37 10° SW 05:11:17 56° WNW 05:17:07 10° NNE visible
13 Feb - 12:31:03 10° NE 12:31:20 10° NE 12:31:37 10° NE daylight
13 Feb - 14:12:30 10° NNW 14:18:46 66° ENE 14:25:06 10° SE daylight
13 Feb - 16:00:50 10° WNW 16:04:28 16° WSW 16:08:08 10° SW daylight
14 Feb - 03:29:19 10° SSE 03:34:05 27° ESE 03:38:55 10° NE visible
14 Feb - 05:14:50 10° SW 05:20:08 36° WNW 05:25:35 10° N visible
14 Feb - 12:36:58 10° NNE 12:40:32 15° NE 12:44:07 10° E daylight
14 Feb - 14:21:13 10° NNW 14:27:32 83° WSW 14:33:54 10° SSE daylight
15 Feb - 03:37:14 10° S 03:42:40 43° ESE 03:48:12 10° NE visible
15 Feb - 05:24:25 10° WSW 05:29:05 24° NW 05:33:52 10° N visible
15 Feb - 12:44:47 10° N 12:49:36 23° NE 12:54:28 10° ESE daylight
15 Feb - 14:30:06 10° NW 14:36:13 54° WSW 14:42:23 10° S daylight
16 Feb - 03:45:33 10° SSW 03:51:18 68° ESE 03:57:11 10° NNE visible
16 Feb - 05:34:32 10° W 05:38:08 16° NW 05:41:48 10° NNW visible
16 Feb - 12:52:59 10° N 12:58:35 33° ENE 13:04:14 10° ESE daylight
16 Feb - 14:39:12 10° NW 14:44:51 35° WSW 14:50:32 10° S daylight
17 Feb - 02:13:02 10° ESE 02:14:32 11° ESE 02:16:04 10° E night (unlit)
17 Feb - 03:54:13 10° SSW 04:00:00 78° WNW 04:05:58 10° NNE visible
17 Feb - 05:45:53 10° WNW 05:47:17 11° NW 05:48:41 10° NNW visible
17 Feb - 13:01:24 10° NNW 13:07:28 49° ENE 13:13:37 10° SE daylight
17 Feb - 14:48:38 10° NW 14:53:24 23° WSW 14:58:12 10° SSW daylight
18 Feb - 02:19:05 10° SSE 02:23:00 19° ESE 02:26:59 10° ENE visible
18 Feb - 04:03:11 10° SW 04:08:48 50° WNW 04:14:34 10° NNE visible
18 Feb - 11:27:06 10° NNE 11:28:58 11° NE 11:30:51 10° ENE daylight
18 Feb - 13:09:58 10° NNW 13:16:17 74° ENE 13:22:39 10° SSE daylight
18 Feb - 14:58:47 10° WNW 15:01:55 14° WSW 15:05:03 10° SW daylight
19 Feb - 02:26:33 10° SSE 02:31:31 30° ESE 02:36:35 10° NE visible
19 Feb - 04:12:29 10° WSW 04:17:40 33° WNW 04:23:00 10° N visible
19 Feb - 11:34:10 10° N 11:38:08 17° NE 11:42:07 10° E daylight
19 Feb - 13:18:44 10° NNW 13:25:02 75° WSW 13:31:23 10° SSE daylight
